Weather History for Tampa Macdill AFB, FL

Change the Weather History Date:

Thursday, October 6, 2011

  Actual Average Record
Temperature  
Mean Temperature 75 °F -  
Max Temperature 87 °F 84 °F 91 °F (2002)
Min Temperature 64 °F 69 °F 58 °F (2014)
Cooling Degree Days 10    
Growing Degree Days 25 (Base 50)    
Moisture  
Dew Point 66 °F    
Average Humidity 71    
Maximum Humidity 94    
Minimum Humidity 48    
Precipitation  
Precipitation 0.00 in - - ()
Sea Level Pressure  
Sea Level Pressure 30.07 in    
Wind  
Wind Speed 10 mph (NE)    
Max Wind Speed 17 mph    
Max Gust Speed -    
Visibility 10 miles    
Events Rain    
Averages and records for this station are not official NWS values.
T = Trace of Precipitation, MM = Missing Value Source: NWS Daily Summary

Daily Weather History Graph

Daily Weather History Graph

Search for Another Location

Airport:

Trip Planner

Search our weather history database for the weather conditions in past years. The results will help you decide how hot, cold, wet, or windy it might be!

Date:

Astronomy

Oct. 06, 2011 Rise Set
Actual Time 7:25 AM EDT 7:10 PM EDT
Civil Twilight 7:01 AM EDT 7:34 PM EDT
Nautical Twilight 6:34 AM EDT 8:01 PM EDT
Astronomical Twilight 6:07 AM EDT 8:28 PM EDT
Moon 4:01 PM EDT (10/6) 2:37 AM EDT (10/6)
Length of Visible Light 12h 32m
Length of Day
11h 45m
Waxing Gibbous, 75% of the Moon is Illuminated
Oct 6
Waxing Gibbous
Oct 11
Full
Oct 19
Last Quarter
Oct 26
New
Nov 2
First Quarter

Hourly Weather History & Observations

Time (EDT) Temp. Heat Index Dew Point Humidity Pressure Visibility Wind Dir Wind Speed Gust Speed Precip Events Conditions
12:55 AM 69.6 °F - 64.8 °F 84% 30.09 in 10.0 mi NNE 11.5 mph - N/A   Clear
1:55 AM 68.4 °F - 64.4 °F 87% 30.09 in 10.0 mi NNE 8.1 mph - N/A   Clear
2:55 AM 67.6 °F - 63.9 °F 88% 30.07 in 10.0 mi NNE 8.1 mph - N/A   Clear
3:55 AM 66.9 °F - 63.3 °F 88% 30.07 in 10.0 mi NE 8.1 mph - N/A   Partly Cloudy
4:55 AM 67.8 °F - 64.4 °F 89% 30.06 in 10.0 mi NE 5.8 mph - N/A   Partly Cloudy
5:55 AM 64.8 °F - 61.9 °F 90% 30.07 in 10.0 mi North 3.5 mph - N/A   Clear
6:55 AM 64.4 °F - 62.1 °F 92% 30.09 in 10.0 mi NNE 6.9 mph - N/A   Clear
7:55 AM 65.1 °F - 63.5 °F 94% 30.09 in 10.0 mi NE 6.9 mph - N/A   Clear
8:55 AM 72.7 °F - 69.1 °F 88% 30.10 in 10.0 mi NNE 6.9 mph - N/A   Clear
9:55 AM 77.4 °F - 68.4 °F 74% 30.11 in 10.0 mi NNE 11.5 mph - N/A   Clear
10:55 AM 81.0 °F 83.8 °F 68.4 °F 65% 30.11 in 10.0 mi NE 13.8 mph - N/A   Partly Cloudy
11:55 AM 83.1 °F 85.2 °F 65.8 °F 56% 30.11 in 10.0 mi NE 15.0 mph - N/A   Clear
12:55 PM 84.4 °F 86.3 °F 65.5 °F 53% 30.09 in 10.0 mi NE 13.8 mph - N/A   Scattered Clouds
1:55 PM 86.2 °F 88.2 °F 65.3 °F 50% 30.07 in 10.0 mi NE 12.7 mph - N/A   Partly Cloudy
2:55 PM 86.9 °F 88.6 °F 65.3 °F 48% 30.04 in 10.0 mi NE 15.0 mph - N/A   Clear
3:55 PM 86.9 °F 89.6 °F 66.9 °F 51% 30.04 in 10.0 mi NE 17.3 mph - N/A   Scattered Clouds
4:03 PM 86.0 °F 88.2 °F 66.2 °F 51% 30.04 in 10.0 mi ENE 16.1 mph - N/A Rain Light Rain
4:16 PM 84.2 °F 87.3 °F 68.0 °F 58% 30.04 in 10.0 mi NE 12.7 mph - N/A   Mostly Cloudy
4:55 PM 84.9 °F 87.1 °F 66.0 °F 53% 30.04 in 10.0 mi NE 12.7 mph - 0.00 in   Partly Cloudy
5:55 PM 84.2 °F 86.8 °F 67.1 °F 56% 30.04 in 10.0 mi NE 13.8 mph - N/A   Mostly Cloudy
5:59 PM 84.2 °F 87.3 °F 68.0 °F 58% 30.04 in 10.0 mi NNE 9.2 mph - N/A   Light Drizzle
6:07 PM 84.2 °F 87.3 °F 68.0 °F 58% 30.04 in 10.0 mi ENE 12.7 mph - N/A   Mostly Cloudy
6:55 PM 80.6 °F 82.9 °F 66.9 °F 63% 30.05 in 10.0 mi ENE 12.7 mph - 0.00 in   Scattered Clouds
7:55 PM 78.1 °F - 66.4 °F 67% 30.06 in 10.0 mi NE 11.5 mph - N/A   Scattered Clouds
8:55 PM 76.1 °F - 67.1 °F 74% 30.09 in 10.0 mi ENE 10.4 mph - N/A   Scattered Clouds
9:55 PM 74.5 °F - 67.3 °F 78% 30.10 in 10.0 mi NE 9.2 mph - N/A   Clear
10:55 PM 74.1 °F - 67.3 °F 79% 30.10 in 10.0 mi NNE 10.4 mph - N/A   Clear
11:55 PM 72.3 °F - 66.9 °F 83% 30.12 in 10.0 mi NNE 9.2 mph - N/A   Clear